AFR45PP LFLC-LFPG

Flight info

Callsign AFR45PP
Flight time N/A
Altitude 17000
Route MOU
Aircraft E190/M-SDE3GILORVW/S

Departure

Time 2026-05-01 13:49
Airport Clermont-Ferrand Auvergne airport (LFLC)

Arrival

Time N/A
Airport Charles de Gaulle International Airport (LFPG)
Time Latitude Longitude Altitude Speed Heading
2026-05-01 13:27 45.78910 3.15775 1099 ft 0 kts 12°
2026-05-01 13:43 45.78887 3.15770 1097 ft 4 kts 360°
2026-05-01 13:44 45.78861 3.15774 1097 ft 4 kts 339°
2026-05-01 13:44 45.78845 3.15785 1099 ft 1 kts 330°
2026-05-01 13:44 45.78842 3.15787 1099 ft 0 kts 330°
2026-05-01 13:47 45.78845 3.15781 1099 ft 0 kts 314°
2026-05-01 13:47 45.78849 3.15770 1099 ft 3 kts 291°
2026-05-01 13:47 45.78839 3.15708 1100 ft 10 kts 256°
2026-05-01 13:47 45.78833 3.15643 1100 ft 11 kts 264°
2026-05-01 13:48 45.78821 3.15446 1099 ft 19 kts 253°
2026-05-01 13:48 45.78749 3.15382 1102 ft 21 kts 188°
2026-05-01 13:48 45.78544 3.15362 1100 ft 21 kts 154°
2026-05-01 13:48 45.78520 3.15465 1103 ft 5 kts 83°
2026-05-01 13:49 45.78527 3.15540 1102 ft 36 kts 83°
2026-05-01 13:49 45.78602 3.16307 1095 ft 118 kts 82°
2026-05-01 13:49 45.78734 3.17793 1197 ft 176 kts 88°
2026-05-01 13:49 45.78829 3.19006 1699 ft 188 kts 86°
2026-05-01 13:50 45.78995 3.20883 2676 ft 210 kts 80°
2026-05-01 13:50 45.80276 3.23535 3295 ft 265 kts 36°
2026-05-01 13:50 45.81390 3.24273 3824 ft 274 kts 13°
2026-05-01 13:50 45.83425 3.24409 4191 ft 316 kts 349°
2026-05-01 13:51 45.85408 3.23303 4236 ft 295 kts 329°
2026-05-01 13:51 45.87092 3.21871 4628 ft 272 kts 327°
2026-05-01 13:51 45.89318 3.20052 5161 ft 280 kts 331°
2026-05-01 13:51 45.90505 3.19233 5473 ft 278 kts 335°
2026-05-01 13:52 45.92298 3.18200 5969 ft 284 kts 339°
2026-05-01 13:52 45.94175 3.17308 6497 ft 286 kts 342°
2026-05-01 13:52 45.96102 3.16496 7005 ft 288 kts 343°
2026-05-01 13:52 45.98060 3.15792 7530 ft 291 kts 348°
2026-05-01 13:53 46.00057 3.15297 8053 ft 293 kts 349°
2026-05-01 13:53 46.04130 3.14364 9282 ft 299 kts 350°
2026-05-01 13:53 46.06202 3.13896 9913 ft 303 kts 350°
2026-05-01 13:54 46.08310 3.13417 10508 ft 311 kts 350°
2026-05-01 13:54 46.10479 3.12928 11110 ft 319 kts 350°
2026-05-01 13:54 46.12699 3.12421 11721 ft 327 kts 350°
2026-05-01 13:54 46.14990 3.12133 12333 ft 335 kts
2026-05-01 13:55 46.17262 3.12950 12965 ft 341 kts 21°
2026-05-01 13:55 46.19463 3.14289 13632 ft 346 kts 26°
2026-05-01 13:55 46.21612 3.15822 14246 ft 351 kts 28°
2026-05-01 13:55 46.23791 3.17469 14825 ft 356 kts 29°
2026-05-01 13:56 46.25944 3.19297 15415 ft 360 kts 35°
2026-05-01 13:56 46.28013 3.21268 15988 ft 362 kts 36°
2026-05-01 13:56 46.30113 3.23299 16594 ft 365 kts 36°
2026-05-01 13:56 46.32231 3.25363 17036 ft 370 kts 36°
2026-05-01 13:57 46.34372 3.27451 17139 ft 370 kts 37°
2026-05-01 13:57 46.36506 3.29537 17189 ft 370 kts 36°
2026-05-01 13:57 46.38638 3.31623 17199 ft 370 kts 37°
2026-05-01 13:57 46.40768 3.33706 17210 ft 370 kts 36°
2026-05-01 13:58 46.42905 3.35799 17223 ft 370 kts 37°
2026-05-01 13:58 46.45042 3.37892 17218 ft 370 kts 37°
2026-05-01 13:58 46.47172 3.39981 17207 ft 370 kts 37°
2026-05-01 13:58 46.49307 3.42075 17215 ft 370 kts 37°
2026-05-01 13:59 46.51435 3.44169 17215 ft 370 kts 37°
2026-05-01 13:59 46.53571 3.46266 17212 ft 369 kts 37°
2026-05-01 13:59 46.55696 3.48361 17206 ft 369 kts 37°
2026-05-01 13:59 46.57817 3.50452 17227 ft 369 kts 37°
2026-05-01 14:00 46.59950 3.52554 17224 ft 369 kts 37°
2026-05-01 14:00 46.62079 3.54660 17219 ft 369 kts 37°
2026-05-01 14:00 46.64200 3.56752 17241 ft 369 kts 37°
2026-05-01 14:00 46.66331 3.58860 17248 ft 370 kts 37°
2026-05-01 14:01 46.68535 3.60796 17223 ft 373 kts 24°
2026-05-01 14:01 46.71059 3.61593 17208 ft 375 kts
2026-05-01 14:01 46.73636 3.61288 17237 ft 375 kts 352°
2026-05-01 14:01 46.76223 3.60758 17242 ft 376 kts 351°
2026-05-01 14:02 46.78814 3.60244 17221 ft 375 kts 352°
2026-05-01 14:02 46.81402 3.59797 17216 ft 375 kts 353°
2026-05-01 14:02 46.83997 3.59380 17221 ft 375 kts 353°
2026-05-01 14:02 46.86596 3.59005 17223 ft 375 kts 356°
2026-05-01 14:03 46.89204 3.58909 17227 ft 375 kts 359°
2026-05-01 14:03 46.91822 3.58841 17215 ft 375 kts 360°
2026-05-01 14:03 46.94441 3.58803 17221 ft 376 kts
2026-05-01 14:03 46.97063 3.58771 17227 ft 376 kts 360°
2026-05-01 14:04 46.99687 3.58735 17225 ft 376 kts 360°
2026-05-01 14:04 47.02309 3.58699 17219 ft 377 kts 360°
2026-05-01 14:04 47.04896 3.58663 17223 ft 376 kts 360°
2026-05-01 14:04 47.07514 3.58626 17230 ft 376 kts 360°
2026-05-01 14:05 47.10129 3.58588 17220 ft 377 kts 360°
2026-05-01 14:05 47.12753 3.58551 17219 ft 376 kts
2026-05-01 14:05 47.15376 3.58513 17222 ft 377 kts
2026-05-01 14:05 47.17999 3.58475 17224 ft 377 kts 360°
2026-05-01 14:06 47.20621 3.58438 17218 ft 377 kts
2026-05-01 14:06 47.23241 3.58399 17211 ft 376 kts
2026-05-01 14:06 47.25858 3.58363 17218 ft 377 kts
2026-05-01 14:06 47.28481 3.58323 17216 ft 377 kts
2026-05-01 14:07 47.31101 3.58286 17206 ft 376 kts
2026-05-01 14:07 47.33727 3.58248 17211 ft 377 kts
2026-05-01 14:07 47.36350 3.58210 17224 ft 378 kts
2026-05-01 14:08 47.41610 3.58132 17211 ft 378 kts
2026-05-01 14:08 47.44239 3.58094 17221 ft 377 kts
2026-05-01 14:08 47.46868 3.58057 17218 ft 377 kts
2026-05-01 14:08 47.49457 3.58018 17214 ft 377 kts
2026-05-01 14:09 47.52081 3.57981 17221 ft 378 kts
2026-05-01 14:09 47.54703 3.57941 17226 ft 377 kts
2026-05-01 14:09 47.57333 3.57903 17216 ft 377 kts
2026-05-01 14:09 47.59955 3.57864 17217 ft 377 kts
2026-05-01 14:10 47.62573 3.57827 17226 ft 377 kts
2026-05-01 14:10 47.65197 3.57788 17217 ft 377 kts
2026-05-01 14:10 47.67829 3.57749 17210 ft 377 kts
2026-05-01 14:10 47.70445 3.57711 17222 ft 377 kts
2026-05-01 14:11 47.73077 3.57673 17207 ft 377 kts
2026-05-01 14:11 47.78311 3.57594 17215 ft 376 kts
2026-05-01 14:11 47.80891 3.57556 17216 ft 376 kts
2026-05-01 14:12 47.83508 3.57517 17211 ft 375 kts
2026-05-01 14:12 47.86123 3.57477 17215 ft 375 kts
2026-05-01 14:12 47.88735 3.57440 17208 ft 375 kts
2026-05-01 14:12 47.91345 3.57402 17203 ft 375 kts
2026-05-01 14:13 47.93959 3.57362 17215 ft 375 kts
2026-05-01 14:13 47.95688 3.57337 17220 ft 376 kts
2026-05-01 14:13 47.99175 3.57285 17210 ft 374 kts
2026-05-01 14:13 48.01782 3.57246 17213 ft 374 kts
2026-05-01 14:14 48.04381 3.57207 17214 ft 375 kts
2026-05-01 14:14 48.06986 3.57167 17203 ft 374 kts
2026-05-01 14:14 48.09595 3.57130 17204 ft 374 kts
2026-05-01 14:14 48.12187 3.57090 17212 ft 374 kts
2026-05-01 14:15 48.14806 3.57052 17210 ft 375 kts
2026-05-01 14:15 48.17417 3.57012 17196 ft 374 kts
2026-05-01 14:15 48.19979 3.56972 17207 ft 373 kts
2026-05-01 14:15 48.22583 3.56934 17211 ft 373 kts
2026-05-01 14:16 48.25188 3.56896 17210 ft 373 kts
2026-05-01 14:16 48.27786 3.56855 17201 ft 373 kts
2026-05-01 14:16 48.30389 3.56817 17200 ft 373 kts
2026-05-01 14:16 48.32986 3.56778 17210 ft 374 kts
2026-05-01 14:17 48.35587 3.56737 17209 ft 374 kts
2026-05-01 14:17 48.38187 3.56699 17203 ft 373 kts
2026-05-01 14:17 48.40778 3.56661 17207 ft 372 kts
2026-05-01 14:17 48.43356 3.56620 17215 ft 372 kts
2026-05-01 14:18 48.45943 3.56348 17196 ft 373 kts 347°
2026-05-01 14:18 48.48313 3.54812 17197 ft 372 kts 324°
2026-05-01 14:18 48.50108 3.52134 17114 ft 369 kts 303°
2026-05-01 14:18 48.50919 3.49839 16712 ft 365 kts 287°
2026-05-01 14:19 48.51683 3.44942 15992 ft 365 kts 280°
2026-05-01 14:19 48.52408 3.41253 15460 ft 369 kts 286°
2026-05-01 14:19 48.53344 3.37640 14914 ft 368 kts 290°
2026-05-01 14:19 48.54367 3.34302 14399 ft 365 kts 294°
2026-05-01 14:20 48.55556 3.30749 13823 ft 361 kts 295°
2026-05-01 14:20 48.57907 3.24167 12613 ft 352 kts 300°